This is the latest recevied weather packets stored in our database for station/object WX4ET. If no packets are shown the sender has not sent any weather packets the latest 10 day(s).
| Time | Temp. | Humidity | Pressure | Rain* | Wind** | Luminosity | Snow |
|---|---|---|---|---|---|---|---|
| 1777909562 | 15.56° C | 73% | 1012.7 hPa | 0 mm | - | 566 W/m² | - |
| 1777909260 | 15.56° C | 77% | 1012.8 hPa | 0 mm | - | 499 W/m² | - |
| 1777908958 | 14.44° C | 79% | 1012.9 hPa | 0 mm | - | 581 W/m² | - |
| 1777908622 | 14.44° C | 85% | 1012.7 hPa | 0 mm | - | 547 W/m² | - |
| 1777908317 | 13.33° C | 87% | 1012.7 hPa | 0 mm | - | 547 W/m² | - |
| 1777908014 | 12.78° C | 89% | 1012.8 hPa | 0 mm | - | 379 W/m² | - |
| 1777907710 | 12.22° C | 90% | 1012.9 hPa | 0 mm | - | 267 W/m² | - |
| 1777907404 | 11.67° C | 92% | 1012.9 hPa | 0 mm | - | 234 W/m² | - |
| 1777907102 | 11.67° C | 93% | 1013.1 hPa | 0 mm | - | 191 W/m² | - |
| 1777906799 | 11.67° C | 92% | 1013.2 hPa | 1.78 mm | - | 112 W/m² | - |
| 1777906379 | 11.11° C | 88% | 1013.5 hPa | 1.78 mm | - | 109 W/m² | - |
| 1777906075 | 11.67° C | 90% | 1013.4 hPa | 1.27 mm | - | 66 W/m² | - |
| 1777905772 | 11.67° C | 87% | 1013.5 hPa | 1.27 mm | - | 125 W/m² | - |
| 1777905469 | 12.22° C | 85% | 1013.3 hPa | 1.27 mm | - | 101 W/m² | - |
| 1777905167 | 12.78° C | 78% | 1013.9 hPa | 0 mm | - | 39 W/m² | - |
| 1777904864 | 12.22° C | 75% | 1014.1 hPa | 0 mm | - | 66 W/m² | - |
| 1777904561 | 12.22° C | 71% | 1014.3 hPa | 0 mm | - | 49 W/m² | - |
| 1777904258 | 12.78° C | 70% | 1014.2 hPa | 0 mm | - | 76 W/m² | - |
| 1777903955 | 12.78° C | 70% | 1014 hPa | 0 mm | - | 144 W/m² | - |
| 1777903651 | 13.33° C | 71% | 1014.4 hPa | 0 mm | - | 163 W/m² | - |
| 1777903347 | 12.78° C | 72% | 1014.3 hPa | 0 mm | - | 629 W/m² | - |
| 1777903044 | 11.67° C | 73% | 1014.5 hPa | 0 mm | - | 559 W/m² | - |
| 1777902740 | 11.67° C | 72% | 1014.4 hPa | 0 mm | - | 116 W/m² | - |
| 1777902438 | 11.67° C | 71% | 1014 hPa | 0 mm | - | 118 W/m² | - |
| 1777902134 | 11.11° C | 73% | 1014.2 hPa | 0 mm | - | 190 W/m² | - |
* Rain latest hour (hover to see other rain measurements)
** Current wind speed in m/s (hover to see current wind gust speed)